Terug naar catalogus

STARLINK-33754

ActiefCommunicatieVLEO
NORAD 63487·PAYLOAD·🇺🇸 United States

Gelanceerd Apr 6, 2025 vanaf Cape Canaveral Space Force Station

Loading…

Volgende Passages (komende 24 uur)

TLE

VersSource: CelesTrak SupGP

Epoch: Sep 15, 2026, 03:04 UTC

1 63487C 25070AD  26258.12826389 -.00012529  00000+0 -45381-3 0  2586
2 63487  43.0015 270.0297 0001548 269.9142 229.1004 15.27583360    10

Volg STARLINK-33754 in realtime met AllMySat

Download on the App Store